| time (UTC) | temp C | wind direction | speed KPH | gust KPH | rain 1hr cm | rain 24hr cm | rain mn cm | humidity % | barometer mb |
| 20260507183050 | 12 | 0 | 1.6 | 6.4 | 0.00 | 0.00 | 0.00 | 53 | 1014.6 |
| 20260507181551 | 12 | 0 | 0.0 | 8.0 | 0.00 | 0.00 | 0.00 | 53 | 1014.6 |
| 20260507180055 | 12 | 0 | 3.2 | 14.5 | 0.00 | 0.00 | 0.00 | 52 | 1014.6 |
| 20260507174556 | 12 | 161 | 1.6 | 9.7 | 0.00 | 0.00 | 0.00 | 53 | 1014.6 |
| 20260507173125 | 12 | 0 | 3.2 | 11.3 | 0.00 | 0.00 | 0.00 | 53 | 1014.7 |
| 20260507171557 | 12 | 140 | 1.6 | 12.9 | 0.00 | 0.00 | 0.00 | 53 | 1014.7 |
| 20260507170053 | 12 | 194 | 1.6 | 14.5 | 0.00 | 0.00 | 0.00 | 53 | 1014.9 |
| 20260507164555 | 12 | 169 | 3.2 | 11.3 | 0.00 | 0.00 | 0.00 | 53 | 1015.0 |
| 20260507163055 | 12 | 192 | 4.8 | 19.3 | 0.00 | 0.00 | 0.00 | 53 | 1015.0 |
| 20260507161559 | 12 | 180 | 4.8 | 14.5 | 0.00 | 0.00 | 0.00 | 52 | 1015.0 |
| 20260507160100 | 11 | 159 | 6.4 | 22.5 | 0.00 | 0.00 | 0.00 | 53 | 1015.0 |
| 20260507154545 | 11 | 200 | 6.4 | 16.1 | 0.00 | 0.00 | 0.00 | 53 | 1015.1 |
| 20260507153057 | 11 | 192 | 4.8 | 16.1 | 0.00 | 0.00 | 0.00 | 54 | 1015.1 |
| 20260507151548 | 11 | 201 | 8.0 | 16.1 | 0.00 | 0.00 | 0.00 | 54 | 1015.2 |
| 20260507150048 | 11 | 196 | 9.7 | 17.7 | 0.00 | 0.00 | 0.00 | 54 | 1015.3 |
| 20260507144548 | 11 | 189 | 9.7 | 22.5 | 0.00 | 0.00 | 0.00 | 53 | 1015.3 |
| 20260507143057 | 11 | 193 | 9.7 | 19.3 | 0.00 | 0.00 | 0.00 | 53 | 1015.4 |
| 20260507141558 | 11 | 186 | 8.0 | 20.9 | 0.00 | 0.00 | 0.00 | 52 | 1015.4 |
| 20260507140053 | 12 | 184 | 9.7 | 24.1 | 0.00 | 0.00 | 0.00 | 51 | 1015.5 |
| 20260507134554 | 12 | 200 | 8.0 | 29.0 | 0.00 | 0.00 | 0.00 | 53 | 1015.5 |
| 20260507133125 | 12 | 178 | 8.0 | 29.0 | 0.00 | 0.00 | 0.00 | 54 | 1015.7 |
| 20260507131548 | 11 | 204 | 11.3 | 24.1 | 0.00 | 0.00 | 0.00 | 54 | 1015.6 |
| 20260507130058 | 12 | 194 | 6.4 | 27.4 | 0.00 | 0.00 | 0.00 | 53 | 1015.6 |
| 20260507124609 | 12 | 184 | 8.0 | 24.1 | 0.00 | 0.00 | 0.00 | 52 | 1015.6 |
| 20260507123048 | 12 | 192 | 8.0 | 22.5 | 0.00 | 0.00 | 0.00 | 51 | 1015.5 |
| 20260507121550 | 12 | 168 | 9.7 | 25.7 | 0.00 | 0.00 | 0.00 | 51 | 1015.6 |
| 20260507120048 | 12 | 191 | 9.7 | 25.7 | 0.00 | 0.00 | 0.00 | 50 | 1015.7 |
| 20260507114558 | 12 | 190 | 8.0 | 24.1 | 0.00 | 0.00 | 0.00 | 50 | 1015.8 |
| 20260507113044 | 12 | 244 | 9.7 | 25.7 | 0.00 | 0.00 | 0.00 | 51 | 1015.9 |
| 20260507111544 | 11 | 208 | 6.4 | 19.3 | 0.00 | 0.00 | 0.00 | 52 | 1015.9 |
| 20260507110051 | 10 | 192 | 8.0 | 24.1 | 0.00 | 0.00 | 0.00 | 54 | 1016.0 |
| 20260507104552 | 10 | 189 | 8.0 | 19.3 | 0.00 | 0.00 | 0.00 | 55 | 1016.0 |
| 20260507103051 | 9 | 252 | 4.8 | 22.5 | 0.00 | 0.00 | 0.00 | 57 | 1016.2 |
| 20260507101548 | 9 | 173 | 3.2 | 16.1 | 0.00 | 0.00 | 0.00 | 58 | 1016.3 |
| 20260507100051 | 8 | 221 | 9.7 | 22.5 | 0.00 | 0.00 | 0.00 | 58 | 1016.3 |
| 20260507094555 | 8 | 190 | 6.4 | 19.3 | 0.00 | 0.00 | 0.00 | 58 | 1016.2 |
| 20260507093051 | 8 | 136 | 1.6 | 16.1 | 0.00 | 0.00 | 0.00 | 59 | 1016.1 |
| 20260507091552 | 8 | 157 | 6.4 | 17.7 | 0.00 | 0.00 | 0.00 | 58 | 1016.3 |
| 20260507090046 | 8 | 144 | 4.8 | 14.5 | 0.00 | 0.00 | 0.00 | 58 | 1016.4 |
| 20260507084548 | 7 | 144 | 4.8 | 14.5 | 0.00 | 0.00 | 0.00 | 58 | 1016.3 |
| 20260507083045 | 7 | 167 | 4.8 | 16.1 | 0.00 | 0.00 | 0.00 | 59 | 1016.4 |
| 20260507081544 | 7 | 198 | 4.8 | 16.1 | 0.00 | 0.00 | 0.00 | 60 | 1016.5 |
| 20260507080048 | 7 | 155 | 6.4 | 17.7 | 0.00 | 0.00 | 0.00 | 61 | 1016.5 |
| 20260507074551 | 6 | 186 | 4.8 | 11.3 | 0.00 | 0.00 | 0.00 | 62 | 1016.4 |
| 20260507073101 | 6 | 201 | 1.6 | 12.9 | 0.00 | 0.00 | 0.00 | 63 | 1016.4 |
| 20260507071548 | 6 | 193 | 1.6 | 9.7 | 0.00 | 0.00 | 0.00 | 64 | 1016.4 |
| 20260507070056 | 6 | 0 | 1.6 | 9.7 | 0.00 | 0.00 | 0.00 | 65 | 1016.2 |
| 20260507064552 | 5 | 178 | 1.6 | 14.5 | 0.00 | 0.00 | 0.00 | 67 | 1016.2 |
| 20260507063046 | 5 | 206 | 3.2 | 12.9 | 0.00 | 0.00 | 0.00 | 71 | 1016.3 |
| 20260507061547 | 4 | 170 | 1.6 | 9.7 | 0.00 | 0.00 | 0.00 | 74 | 1016.3 |
| 20260507060056 | 3 | 0 | 1.6 | 9.7 | 0.00 | 0.00 | 0.00 | 74 | 1016.1 |
| 20260507054549 | 2 | 0 | 0.0 | 4.8 | 0.00 | 0.00 | 0.00 | 75 | 1016.1 |
| 20260507053120 | 2 | 0 | 0.0 | 4.8 | 0.00 | 0.00 | 0.00 | 75 | 1016.1 |
| 20260507051554 | 1 | 0 | 0.0 | 0.0 | 0.00 | 0.00 | 0.00 | 74 | 1016.2 |
| 20260507050046 | 1 | 0 | 0.0 | 1.6 | 0.00 | 0.00 | 0.00 | 74 | 1016.1 |
| 20260507044558 | 0 | 0 | 0.0 | 0.0 | 0.00 | 0.00 | 0.00 | 73 | 1016.1 |
| 20260507043050 | 0 | 0 | 0.0 | 3.2 | 0.00 | 0.00 | 0.00 | 72 | 1016.1 |
| 20260507041550 | 0 | 0 | 0.0 | 0.0 | 0.00 | 0.00 | 0.00 | 72 | 1016.0 |
| 20260507040048 | 0 | 0 | 0.0 | 0.0 | 0.00 | 0.00 | 0.00 | 72 | 1016.0 |
| 20260507034554 | 0 | 0 | 0.0 | 0.0 | 0.00 | 0.00 | 0.00 | 71 | 1016.1 |
| 20260507033102 | 0 | 0 | 0.0 | 0.0 | 0.00 | 0.00 | 0.00 | 71 | 1016.2 |
| 20260507031559 | 0 | 0 | 0.0 | 0.0 | 0.00 | 0.00 | 0.00 | 71 | 1016.2 |
| 20260507030105 | 0 | 0 | 0.0 | 0.0 | 0.00 | 0.00 | 0.00 | 71 | 1016.2 |
| 20260507024607 | 0 | 0 | 0.0 | 0.0 | 0.00 | 0.00 | 0.00 | 71 | 1016.2 |
| 20260507023044 | 0 | 0 | 0.0 | 0.0 | 0.00 | 0.00 | 0.00 | 70 | 1016.3 |
| 20260507021556 | 0 | 0 | 0.0 | 0.0 | 0.00 | 0.00 | 0.00 | 70 | 1016.3 |
| 20260507020057 | 0 | 0 | 0.0 | 0.0 | 0.00 | 0.00 | 0.00 | 70 | 1016.3 |
| 20260507014555 | 0 | 0 | 0.0 | 0.0 | 0.00 | 0.00 | 0.00 | 70 | 1016.3 |
| 20260507013044 | 0 | 0 | 0.0 | 0.0 | 0.00 | 0.00 | 0.00 | 69 | 1016.5 |
| 20260507011548 | 0 | 0 | 0.0 | 0.0 | 0.00 | 0.00 | 0.00 | 69 | 1016.6 |
| 20260507010046 | 0 | 0 | 0.0 | 0.0 | 0.00 | 0.00 | 0.00 | 69 | 1016.5 |
| 20260507004542 | 0 | 0 | 0.0 | 0.0 | 0.00 | 0.00 | 0.00 | 68 | 1016.5 |
| 20260507003048 | 0 | 0 | 0.0 | 0.0 | 0.00 | 0.00 | 0.00 | 68 | 1016.5 |
| 20260507001546 | 0 | 0 | 0.0 | 0.0 | 0.00 | 0.00 | 0.00 | 68 | 1016.6 |
| 20260507000045 | 0 | 0 | 0.0 | 0.0 | 0.00 | 0.00 | 0.00 | 67 | 1016.6 |
| 20260506234553 | 1 | 0 | 0.0 | 0.0 | 0.00 | 0.00 | 0.00 | 67 | 1016.6 |
| 20260506233049 | 1 | 0 | 0.0 | 0.0 | 0.00 | 0.00 | 0.00 | 67 | 1016.7 |
| 20260506231552 | 1 | 0 | 0.0 | 0.0 | 0.00 | 0.00 | 0.00 | 66 | 1016.7 |
| 20260506230059 | 1 | 0 | 0.0 | 0.0 | 0.00 | 0.00 | 0.00 | 66 | 1016.7 |
| 20260506224546 | 2 | 0 | 0.0 | 0.0 | 0.00 | 0.00 | 0.00 | 66 | 1016.7 |
| 20260506223044 | 1 | 0 | 0.0 | 0.0 | 0.00 | 0.00 | 0.00 | 65 | 1016.8 |
| 20260506221546 | 1 | 0 | 0.0 | 0.0 | 0.00 | 0.00 | 0.00 | 65 | 1016.7 |
| 20260506220048 | 2 | 0 | 0.0 | 0.0 | 0.00 | 0.00 | 0.00 | 64 | 1016.7 |
| 20260506214547 | 2 | 0 | 0.0 | 0.0 | 0.00 | 0.00 | 0.00 | 64 | 1016.8 |
| 20260506213048 | 2 | 0 | 0.0 | 0.0 | 0.00 | 0.00 | 0.00 | 64 | 1016.9 |
| 20260506211550 | 2 | 0 | 0.0 | 0.0 | 0.00 | 0.00 | 0.00 | 63 | 1016.7 |
| 20260506210047 | 3 | 0 | 0.0 | 0.0 | 0.00 | 0.00 | 0.00 | 63 | 1016.8 |
| 20260506204552 | 3 | 0 | 0.0 | 0.0 | 0.00 | 0.00 | 0.00 | 62 | 1016.7 |
| 20260506203051 | 3 | 0 | 0.0 | 0.0 | 0.00 | 0.00 | 0.00 | 61 | 1016.6 |
| 20260506201555 | 4 | 0 | 0.0 | 0.0 | 0.00 | 0.00 | 0.00 | 60 | 1016.7 |
| 20260506200049 | 4 | 0 | 0.0 | 0.0 | 0.00 | 0.00 | 0.00 | 58 | 1016.8 |
| 20260506194550 | 5 | 0 | 0.0 | 0.0 | 0.00 | 0.00 | 0.00 | 57 | 1016.6 |
| 20260506193045 | 5 | 82 | 0.0 | 3.2 | 0.00 | 0.00 | 0.00 | 56 | 1016.6 |
| 20260506191557 | 6 | 82 | 0.0 | 4.8 | 0.00 | 0.00 | 0.00 | 55 | 1016.5 |
| 20260506190054 | 6 | 82 | 1.6 | 11.3 | 0.00 | 0.00 | 0.00 | 53 | 1016.4 |
| 20260506184550 | 7 | 76 | 0.0 | 12.9 | 0.00 | 0.00 | 0.00 | 52 | 1016.5 |